Location: *
(43.0167°S, 179.9000°E)
Time: 20:13:04
(UTC+00:00)

Cosmos 2082 Rocket - Pass Details

Date: 12 August 2024
Orbit: 833 x 852 km, 71.0° (Epoch: 19 September)

Event Time Altitude Azimuth Distance (km) Brightness Sun altitude
Exits shadow 17:04:20 - 201° (SSW) 3,017 4.9 -21.0°
Reaches altitude 10° 17:05:41 10° 199° (SSW) 2,514 4.5 -20.8°
Maximum altitude 17:11:26 64° 117° (ESE) 952 2.6 -19.7°
Drops below altitude 10° 17:17:05 10° 36° (NE) 2,477 5.1 -18.7°
Sets 17:19:33 0° 32° (NNE) 3,402 5.9 -18.2°
